SAS78C EKCH-EGLL

Flight info

Callsign SAS78C
Flight time N/A
Altitude 38000
Route LANGO DCT RAXLU DCT JUIST DCT ABNED L980 LOGAN
Aircraft A359/H-SDE2E3GHIJ3J4J5LM1ORWXY/LB1D1

Departure

Time 2026-04-25 23:10
Airport Copenhagen Kastrup Airport (EKCH)

Arrival

Time N/A
Airport London Heathrow Airport (EGLL)
Time Latitude Longitude Altitude Speed Heading
2026-04-25 22:52 55.62422 12.64901 30 ft 0 kts 89°
2026-04-25 23:00 55.62422 12.64899 30 ft 2 kts 89°
2026-04-25 23:01 55.62421 12.64856 29 ft 4 kts 83°
2026-04-25 23:01 55.62418 12.64809 28 ft 4 kts 97°
2026-04-25 23:01 55.62427 12.64774 28 ft 4 kts 145°
2026-04-25 23:01 55.62428 12.64766 28 ft 4 kts 218°
2026-04-25 23:02 55.62446 12.64778 27 ft 3 kts 177°
2026-04-25 23:02 55.62472 12.64775 29 ft 4 kts 176°
2026-04-25 23:02 55.62484 12.64774 27 ft 0 kts 176°
2026-04-25 23:05 55.62410 12.64782 28 ft 16 kts 176°
2026-04-25 23:05 55.62291 12.64794 30 ft 18 kts 176°
2026-04-25 23:05 55.62171 12.64722 31 ft 19 kts 213°
2026-04-25 23:05 55.62097 12.64631 30 ft 20 kts 213°
2026-04-25 23:06 55.61923 12.64514 30 ft 21 kts 178°
2026-04-25 23:06 55.61822 12.64539 30 ft 22 kts 171°
2026-04-25 23:06 55.61668 12.64541 30 ft 23 kts 200°
2026-04-25 23:06 55.61528 12.64392 30 ft 24 kts 213°
2026-04-25 23:07 55.61385 12.64232 30 ft 25 kts 213°
2026-04-25 23:07 55.61238 12.64064 30 ft 26 kts 213°
2026-04-25 23:07 55.61089 12.63891 30 ft 26 kts 213°
2026-04-25 23:07 55.60932 12.63709 30 ft 27 kts 213°
2026-04-25 23:08 55.60774 12.63528 30 ft 28 kts 213°
2026-04-25 23:08 55.60639 12.63362 30 ft 23 kts 218°
2026-04-25 23:08 55.60518 12.63176 30 ft 24 kts 223°
2026-04-25 23:08 55.60423 12.63149 30 ft 9 kts 150°
2026-04-25 23:09 55.60421 12.63152 30 ft 0 kts 148°
2026-04-25 23:09 55.60415 12.63158 30 ft 7 kts 145°
2026-04-25 23:09 55.60358 12.63317 32 ft 18 kts 82°
2026-04-25 23:09 55.60460 12.63532 30 ft 43 kts 41°
2026-04-25 23:10 55.60862 12.64149 31 ft 107 kts 40°
2026-04-25 23:10 55.61563 12.65242 30 ft 160 kts 41°
2026-04-25 23:10 55.62374 12.66537 748 ft 144 kts 39°
2026-04-25 23:10 55.63083 12.67749 1423 ft 145 kts 34°
2026-04-25 23:11 55.63897 12.68962 1739 ft 166 kts 34°
2026-04-25 23:11 55.64847 12.70371 2061 ft 188 kts 35°
2026-04-25 23:11 55.65896 12.71939 2444 ft 208 kts 35°
2026-04-25 23:11 55.67058 12.73646 2860 ft 227 kts 36°
2026-04-25 23:12 55.68287 12.75469 3544 ft 233 kts 36°
2026-04-25 23:12 55.69545 12.77348 4222 ft 239 kts 36°
2026-04-25 23:12 55.70835 12.79289 4944 ft 245 kts 37°
2026-04-25 23:12 55.72165 12.81132 5636 ft 245 kts 24°
2026-04-25 23:13 55.73803 12.81784 6436 ft 241 kts 355°
2026-04-25 23:13 55.75372 12.80891 7217 ft 242 kts 327°
2026-04-25 23:13 55.76496 12.78653 8077 ft 248 kts 300°
2026-04-25 23:13 55.76901 12.75632 8942 ft 257 kts 279°
2026-04-25 23:14 55.76923 12.72410 9790 ft 262 kts 276°
2026-04-25 23:14 55.76871 12.69170 10450 ft 271 kts 275°
2026-04-25 23:14 55.76791 12.65695 10796 ft 291 kts 275°
2026-04-25 23:14 55.76700 12.61977 11107 ft 310 kts 275°
2026-04-25 23:15 55.76537 12.58048 11564 ft 328 kts 270°
2026-04-25 23:15 55.75889 12.54051 12258 ft 348 kts 255°
2026-04-25 23:15 55.74563 12.50317 12983 ft 366 kts 243°
2026-04-25 23:15 55.72972 12.46787 13651 ft 375 kts 241°
2026-04-25 23:16 55.71285 12.43190 14242 ft 381 kts 241°
2026-04-25 23:16 55.69564 12.39548 14811 ft 385 kts 242°
2026-04-25 23:16 55.67834 12.35894 15421 ft 388 kts 242°
2026-04-25 23:16 55.66115 12.32267 16105 ft 390 kts 242°
2026-04-25 23:17 55.64354 12.28549 16728 ft 394 kts 243°
2026-04-25 23:17 55.62575 12.24797 17321 ft 399 kts 243°
2026-04-25 23:17 55.60802 12.21063 17934 ft 403 kts 243°
2026-04-25 23:17 55.58982 12.17238 18556 ft 407 kts 243°
2026-04-25 23:18 55.57140 12.13371 19096 ft 412 kts 243°
2026-04-25 23:18 55.55297 12.09509 19628 ft 416 kts 243°
2026-04-25 23:18 55.53418 12.05579 20202 ft 421 kts 242°
2026-04-25 23:18 55.51519 12.01614 20746 ft 425 kts 242°
2026-04-25 23:19 55.49608 11.97630 21311 ft 429 kts 242°
2026-04-25 23:19 55.47664 11.93583 21843 ft 434 kts 242°
2026-04-25 23:19 55.45701 11.89504 22396 ft 438 kts 242°
2026-04-25 23:19 55.43711 11.85376 22934 ft 442 kts 242°
2026-04-25 23:20 55.41728 11.81270 23484 ft 447 kts 242°
2026-04-25 23:20 55.39703 11.77085 23950 ft 451 kts 242°
2026-04-25 23:20 55.37642 11.72835 24435 ft 454 kts 242°
2026-04-25 23:20 55.35607 11.68645 24844 ft 457 kts 241°
2026-04-25 23:21 55.33539 11.64399 25424 ft 457 kts 241°
2026-04-25 23:21 55.31452 11.60120 25925 ft 460 kts 241°
2026-04-25 23:21 55.29364 11.55837 26366 ft 463 kts 241°
2026-04-25 23:21 55.27277 11.51567 26832 ft 466 kts 241°
2026-04-25 23:22 55.25159 11.47241 27272 ft 469 kts 240°
2026-04-25 23:22 55.23020 11.42882 27710 ft 471 kts 240°
2026-04-25 23:22 55.20874 11.38520 28217 ft 473 kts 240°
2026-04-25 23:23 55.16569 11.29780 29030 ft 479 kts 240°
2026-04-25 23:23 55.14376 11.25342 29473 ft 482 kts 240°
2026-04-25 23:23 55.12169 11.20886 29853 ft 485 kts 239°
2026-04-25 23:23 55.09973 11.16458 30240 ft 488 kts 239°
2026-04-25 23:24 55.07734 11.11952 30589 ft 490 kts 239°
2026-04-25 23:24 55.05481 11.07429 30946 ft 492 kts 239°
2026-04-25 23:24 55.03250 11.02958 31274 ft 494 kts 239°